Regional Weather Roundup
Issued by NWS

Home | Current Version | Previous Version | Graphics & Text | Print | Product List | Glossary On
Versions: 1 2 3 4 5 6 7 8 9 10 11 12 13 14 15 16 17 18 19 20 21 22 23 24 25 26 27 28 29 30 31 32 33 34 35 36 37 38 39 40 41 42 43 44 45 46 47 48 49 50
172
ASUS45 KABQ 011201
RWRNM
NEW MEXICO REGIONAL WEATHER ROUNDUP
NATIONAL WEATHER SERVICE ALBUQUERQUE NM
600 AM MDT SUN MAY 01 2016

NOTE: "FAIR" MEANS FEW OR NO CLOUDS BELOW 12,000 FEET AGL WITH NO
       SIGNIFICANT WEATHER OR OBSTRUCTIONS TO VISION.

      THIS PRODUCT IS RELEASED AS TWO VERSIONS.  ONE VERSION NEAR
      THE TOP OF THE HOUR CONTAINING PRELIMINARY DATA FROM ALBUQUERQUE
      AND OTHER STATIONS.  A FINAL VERSION WITH ADDITIONAL DATA IS
      ISSUED ABOUT 10 MINUTES AFTER THE HOUR.

NMZ501-503-504-510>518-011300-
NORTHWEST PLATEAU/NORTHCENTRAL MOUNTAINS

CITY           SKY/WX    TMP DP  RH WIND       PRES   REMARKS
FARMINGTON     LGT RAIN  39  37  92 W3        29.93R
6HR MIN TEMP:  38; 6HR MAX TEMP:  46; 6HR PCP:  0.32;

SANTA FE       CLOUDY    37  34  89 N13       30.02R WCI  29
6HR MIN TEMP:  37; 6HR MAX TEMP:  44; 6HR PCP: TRACE;

TAOS           CLOUDY    30  25  80 N7        30.07S WCI  23

$$
NMZ402-403-502-505>509-011300-
WESTCENTRAL MOUNTAINS/SOUTHWEST MOUNTAINS

CITY           SKY/WX    TMP DP  RH WIND       PRES   REMARKS
GALLUP         LGT RAIN  34  32  92 E9        29.92F WCI  27
6HR MIN TEMP:  33; 6HR MAX TEMP:  40; 6HR PCP:  0.60;

GRANTS         DRIZZLE   35  35  97 S15G21    29.96R WCI  26
SILVER CITY      N/A     36  25  64 N5        29.92R WCI  32

$$
NMZ407-409-411-412-011300-
SOUTHERN DESERTS

CITY           SKY/WX    TMP DP  RH WIND       PRES   REMARKS
DEMING         FAIR      47  27  45 W5        29.89R
6HR MIN TEMP:  47; 6HR MAX TEMP:  59;

HOLLOMAN AFB   CLOUDY    58  34  41 W13       29.90R
ALAMOGORDO     FAIR      57  32  38 NE14G21   29.90R
T OR C         FAIR      48  32  53 N20G26    29.90R
6HR MIN TEMP:  48; 6HR MAX TEMP:  65;


$$
NMZ519>523-011300-
CENTRAL VALLEYS/CENTRAL HIGHLANDS

CITY           SKY/WX    TMP DP  RH WIND       PRES   REMARKS
ALBUQUERQUE    CLOUDY    41  30  65 E35G48    29.95S
6HR MIN TEMP:  41; 6HR MAX TEMP:  47; 6HR PCP: TRACE;

DOUBLE EAGLE   MOCLDY    39  32  75 SE13      29.98S WCI  32
CLINES CORNERS CLOUDY    29  27  92 E24G30    30.03S WCI  15
6HR MIN TEMP:  29; 6HR MAX TEMP:  31; 6HR PCP:  0.02;

BELEN          CLOUDY    43  38  82 W10       29.97R
6HR MIN TEMP:  42; 6HR MAX TEMP:  50;

SOCORRO        NOT AVBL

$$
NMZ524>526-539-540-011300-
SOUTHCENTRAL MOUNTAINS

CITY           SKY/WX    TMP DP  RH WIND       PRES   REMARKS
RUIDOSO        NOT AVBL

$$
NMZ527>531-011300-
NORTHEAST HIGHLANDS/NORTHEAST PLAINS

CITY           SKY/WX    TMP DP  RH WIND       PRES   REMARKS
RATON          CLOUDY    32  25  75 N20       30.13R WCI  20
6HR MIN TEMP:  31; 6HR MAX TEMP:  34; 6HR PCP: TRACE;

CLAYTON        MIX PCPN  37  29  72 N25G33    30.14R WCI  25
6HR MIN TEMP:  37; 6HR MAX TEMP:  38; 6HR PCP: TRACE;


$$
NMZ532>537-011300-
EASTCENTRAL PLAINS

CITY           SKY/WX    TMP DP  RH WIND       PRES   REMARKS
TUCUMCARI      CLOUDY    40  34  79 NE6       30.13R
6HR MIN TEMP:  40; 6HR MAX TEMP:  42; 6HR PCP: TRACE;

CANNON AFB     NOT AVBL
CLOVIS AIRPORT CLOUDY    39  30  70 NE26      30.09F WCI  28

$$
NMZ028-029-538-011300-
SOUTHEAST PLAINS

CITY           SKY/WX    TMP DP  RH WIND       PRES   REMARKS
ROSWELL        CLOUDY    46  33  60 N14       30.08R
6HR MIN TEMP:  46; 6HR MAX TEMP:  60;

ARTESIA        CLOUDY    46  34  61 N17       30.08R
CARLSBAD       CLOUDY    50  33  52 N22G28    30.05R
6HR MIN TEMP:  50; 6HR MAX TEMP:  65;



$$




USA.gov is the U.S. government's official web portal to all federal, state and local government web resources and services.